If you wish to contribute or participate in the discussions about articles you are invited to join SKYbrary as a registered user

 Actions

Armilla Airport

From SKYbrary Wiki

LEGA
Airport
ICAO: LEGA
Summary
Name Armilla Airport
Region Europe
Territory Spain ES.gif
Location , Andalucia
Serving Granada
Elevation 700.126 m
2,297 ft
2,297 ft700.126 m
Type medium airport
Coordinates 37° 7' 59.60" N, 3° 38' 8.50" W
Runways
Designator Length Width Surface ROPS
18/36 1300 m4,265.092 ft
30 m98.425 ft
ASP /


METAR
Observation LEGA 111000Z 33005KT 260V010 9999 FEW040 13/06 Q1018
Station Granada / Armilla
Date/Time 11 April 2019 10:00:00
Wind direction 330°
Wind speed 05 kts
Lowest cloud amount few clouds
Temperature 13°C
Dew point 6°C
Humidity 62%
QNH 1018 hPa
Weather condition n/a